Weather History for KNEL - May, 2014

Change the Weather History Date:

Friday, May 9, 2014

  Actual Average Record
Temperature  
Mean Temperature 60 °F -  
Max Temperature 59 °F 67 °F 93 °F (2000)
Min Temperature 53 °F 48 °F 39 °F (2001)
Degree Days  
Heating Degree Days 6    
Growing Degree Days 10 (Base 50)    
Moisture  
Dew Point 56 °F    
Average Humidity 93    
Maximum Humidity 100    
Minimum Humidity 81    
Precipitation  
Precipitation 0.00 in - - ()
Sea Level Pressure  
Sea Level Pressure 30.10 in    
Wind  
Wind Speed 5 mph (East)    
Max Wind Speed 8 mph    
Max Gust Speed -    
Visibility 4 miles    
Events Fog    
Averages and records for this station are not official NWS values.
T = Trace of Precipitation, MM = Missing Value Source: NWS Daily Summary

Daily Weather History Graph

Daily Weather History Graph

Search for Another Location

Airport or City:

Trip Planner

Search our weather history database for the weather conditions in past years. The results will help you decide how hot, cold, wet, or windy it might be!

Date:

Astronomy

May. 09, 2014 Rise Set
Actual Time 5:48 AM EDT 8:00 PM EDT
Civil Twilight 5:18 AM EDT 8:30 PM EDT
Nautical Twilight 4:41 AM EDT 9:07 PM EDT
Astronomical Twilight 4:00 AM EDT 9:48 PM EDT
Moon 2:55 PM EDT (5/9) 2:49 AM EDT (5/9)
Length of Visible Light 15h 12m
Length of Day
14h 12m
Waxing Gibbous, 73% of the Moon is Illuminated
May 9
Waxing Gibbous
May 14
Full
May 21
Last Quarter
May 28
New
Jun 5
First Quarter

Hourly Weather History & Observations

Time (EDT) Temp. Dew Point Humidity Pressure Visibility Wind Dir Wind Speed Gust Speed Precip Events Conditions
12:00 AM 55.0 °F 53.1 °F 93% 30.15 in 8.0 mi ENE 5.8 mph - N/A   Overcast
12:57 AM 53.6 °F 53.6 °F 100% 30.15 in 2.0 mi ENE 5.8 mph - N/A   Overcast
1:00 AM 53.6 °F 53.6 °F 100% 30.15 in 1.8 mi ENE 6.9 mph - N/A   Overcast
1:06 AM 54.0 °F 53.1 °F 97% 30.14 in 1.2 mi East 6.9 mph - N/A   Overcast
1:21 AM 53.6 °F 53.6 °F 100% 30.14 in 0.8 mi East 4.6 mph - N/A   Mist
2:00 AM 53.1 °F 53.1 °F 100% 30.15 in 0.5 mi Calm Calm - N/A Fog Fog
3:00 AM 54.0 °F 53.1 °F 97% 30.14 in 0.2 mi Variable 3.5 mph - N/A Fog Fog
4:13 AM 53.6 °F 53.6 °F 100% 30.12 in 1.0 mi ENE 8.1 mph - N/A   Mist
4:23 AM 53.6 °F 53.6 °F 100% 30.12 in 0.8 mi East 4.6 mph - N/A   Mist
5:00 AM 54.0 °F 53.1 °F 97% 30.13 in 0.5 mi East 3.5 mph - N/A Fog Fog
6:00 AM 54.0 °F 53.1 °F 97% 30.14 in 0.2 mi Calm Calm - N/A Fog Fog
7:00 AM 54.0 °F 54.0 °F 100% 30.13 in 0.2 mi Calm Calm - N/A Fog Fog
8:00 AM 55.4 °F 55.4 °F 100% 30.15 in 1.5 mi Calm Calm - N/A   Overcast
8:06 AM 55.9 °F 55.9 °F 100% 30.15 in 1.0 mi Calm Calm - N/A   Overcast
8:31 AM 57.2 °F 55.4 °F 94% 30.16 in 3.0 mi Calm Calm - N/A   Overcast
9:00 AM 57.9 °F 57.0 °F 97% 30.16 in 5.0 mi ENE 4.6 mph - N/A   Overcast
10:00 AM 59.0 °F 57.0 °F 93% 30.15 in 5.0 mi East 6.9 mph - N/A   Overcast
11:11 AM 60.8 °F 57.2 °F 88% 30.16 in 10.0 mi East 4.6 mph - N/A   Overcast
12:00 PM 63.0 °F 57.0 °F 81% 30.14 in 10.0 mi Variable 4.6 mph - N/A   Overcast
12:14 PM 62.6 °F 57.2 °F 82% 30.14 in 10.0 mi East 5.8 mph - N/A   Overcast
1:00 PM 63.0 °F 57.9 °F 84% 30.13 in 10.0 mi East 5.8 mph - N/A   Overcast
2:00 PM 64.9 °F 59.0 °F 81% 30.10 in 10.0 mi ESE 8.1 mph - N/A   Overcast
3:00 PM 66.0 °F 60.1 °F 81% 30.10 in 10.0 mi SE 6.9 mph - N/A   Overcast
4:00 PM 66.0 °F 60.1 °F 81% 30.06 in 10.0 mi East 8.1 mph - N/A   Overcast
5:00 PM 64.9 °F 60.1 °F 84% 30.05 in 10.0 mi East 5.8 mph - N/A   Overcast
6:00 PM 63.0 °F 59.0 °F 87% 30.05 in 10.0 mi ESE 8.1 mph - N/A   Overcast
6:09 PM 62.6 °F 59.0 °F 88% 30.05 in 10.0 mi East 8.1 mph - N/A   Overcast
7:00 PM 60.8 °F 57.2 °F 88% 30.04 in 5.0 mi North - - N/A   Overcast
7:06 PM 60.1 °F 57.9 °F 93% 30.04 in 4.0 mi North - - N/A   Overcast
7:15 PM 59.0 °F 57.2 °F 94% 30.04 in 1.8 mi North - - N/A   Overcast
7:45 PM 59.0 °F 57.2 °F 94% 30.04 in 0.5 mi East 6.9 mph - N/A Fog Fog
8:00 PM 59.0 °F 59.0 °F 100% 30.04 in 0.2 mi East 4.6 mph - N/A Fog Fog
9:00 PM 59.0 °F 59.0 °F 100% 30.03 in 0.2 mi East 3.5 mph - N/A Fog Fog
10:00 PM 59.0 °F 59.0 °F 100% 30.01 in 0.5 mi East 3.5 mph - N/A Fog Fog
11:00 PM 60.1 °F 59.0 °F 96% 30.01 in 0.2 mi Calm Calm - N/A Fog Fog